Temp
-15 -14 -15 -15 -15 -15 -15 -16 -16 -15 -16 -16 -16 -17 -17 -17 -17 -17 -17 -16 -16 -17 -17 -17 -17 -17 -17 -17 -18 -19 -19 -19 -19 -20 -20 -21 -22 -22 -22 -23 -23 -23 -24
-14 -15 -16 -15 -15 -16 -15 -14 -16 -16 -16 -16 -17 -17 -17 -17 -17 -17 -17 -17 -17 -17 -17 -17 -17 -17 -18 -18 -19 -19 -19 -20 -20 -20 -21 -22 -22 -22 -22 -23 -23 -23 -23
-15 -15 -14 -14 -14 -16 -15 -15 -16 -17 -17 -17 -17 -17 -17 -17 -17 -17 -17 -17 -17 -17 -17 -17 -17 -18 -18 -18 -19 -19 -20 -20 -21 -21 -21 -22 -22 -22 -22 -22 -23 -24 -25
-14 -15 -15 -15 -16 -16 -16 -16 -17 -17 -17 -17 -18 -18 -18 -17 -17 -17 -17 -17 -17 -17 -17 -17 -18 -18 -18 -19 -19 -20 -20 -21 -21 -22 -22 -22 -22 -23 -23 -23 -24 -25 -26
-15 -15 -15 -15 -15 -16 -16 -16 -17 -18 -18 -18 -18 -17 -17 -17 -17 -17 -17 -17 -17 -17 -18 -18 -18 -18 -19 -19 -19 -20 -21 -21 -22 -22 -22 -22 -22 -23 -24 -25 -25 -26 -28
-16 -16 -16 -16 -16 -16 -17 -17 -18 -18 -18 -18 -17 -17 -17 -17 -17 -17 -17 -17 -17 -18 -18 -18 -18 -19 -19 -20 -20 -21 -21 -22 -22 -22 -22 -22 -23 -23 -25 -26 -27 -28 -29
-15 -15 -15 -16 -16 -16 -16 -17 -17 -17 -17 -17 -17 -17 -17 -17 -18 -18 -18 -18 -18 -18 -19 -19 -19 -20 -20 -20 -21 -21 -22 -23 -23 -23 -23 -23 -24 -25 -26 -27 -28 -29 -30
-15 -15 -15 -15 -16 -16 -16 -17 -17 -17 -17 -17 -17 -17 -18 -18 -18 -18 -18 -18 -18 -19 -19 -19 -20 -20 -20 -21 -21 -21 -22 -23 -23 -23 -24 -24 -25 -26 -27 -28 -29 -30 -31
-15 -15 -16 -16 -17 -17 -17 -17 -18 -18 -18 -18 -18 -18 -18 -18 -18 -18 -18 -18 -19 -19 -20 -20 -20 -20 -21 -21 -21 -22 -22 -22 -23 -23 -24 -25 -26 -27 -28 -30 -30 -31 -31
-16 -16 -16 -17 -17 -17 -18 -18 -18 -18 -18 -18 -18 -18 -18 -18 -18 -19 -19 -19 -19 -20 -20 -20 -21 -21 -21 -22 -22 -22 -22 -23 -23 -24 -25 -26 -27 -28 -29 -31 -31 -31 -32
-16 -16 -16 -17 -17 -18 -18 -18 -18 -18 -18 -18 -18 -18 -18 -18 -19 -19 -19 -19 -19 -20 -21 -21 -21 -22 -22 -22 -23 -23 -23 -23 -24 -24 -25 -26 -28 -29 -30 -31 -31 -32 -33
-17 -17 -17 -17 -17 -18 -18 -18 -18 -18 -18 -18 -18 -18 -19 -19 -19 -20 -20 -20 -20 -21 -21 -21 -22 -22 -22 -23 -23 -23 -24 -24 -25 -26 -27 -28 -29 -30 -31 -32 -32 -33 -34
-17 -17 -17 -17 -18 -18 -18 -18 -18 -18 -18 -18 -19 -19 -19 -19 -20 -20 -20 -21 -21 -21 -21 -22 -22 -23 -23 -23 -23 -24 -25 -25 -26 -27 -28 -30 -31 -31 -32 -32 -33 -34 -35
-17 -17 -17 -18 -18 -18 -18 -18 -18 -19 -19 -19 -19 -20 -20 -20 -20 -21 -21 -21 -21 -21 -22 -22 -23 -23 -23 -24 -24 -25 -26 -27 -28 -29 -30 -31 -32 -32 -33 -33 -34 -35 -35
-17 -18 -18 -18 -18 -18 -18 -19 -19 -19 -19 -19 -20 -20 -20 -21 -21 -21 -21 -21 -21 -22 -22 -23 -23 -23 -24 -25 -25 -26 -27 -29 -30 -31 -31 -32 -33 -33 -34 -34 -35 -36 -36
-18 -18 -18 -18 -19 -19 -19 -19 -19 -19 -19 -20 -20 -21 -21 -21 -21 -21 -21 -22 -22 -22 -23 -23 -24 -24 -25 -26 -26 -27 -29 -30 -31 -32 -33 -33 -34 -34 -35 -36 -37 -37 -38
-19 -19 -19 -19 -19 -19 -19 -19 -19 -20 -20 -20 -21 -21 -21 -22 -22 -22 -22 -22 -23 -23 -24 -24 -25 -26 -26 -27 -28 -29 -30 -31 -32 -33 -34 -34 -35 -35 -38 -38 -38 -38 -38
-19 -19 -19 -18 -18 -19 -19 -19 -20 -20 -21 -21 -21 -21 -22 -22 -22 -23 -23 -23 -24 -24 -25 -26 -26 -27 -28 -29 -30 -31 -31 -32 -33 -34 -35 -35 -36 -37 -38 -39 -38 -39 -39
-19 -19 -19 -19 -19 -19 -20 -20 -20 -21 -21 -21 -21 -22 -22 -22 -23 -23 -23 -24 -25 -25 -26 -27 -27 -28 -30 -31 -31 -32 -33 -33 -34 -35 -36 -36 -37 -38 -38 -39 -39 -39 -39
-19 -19 -19 -19 -20 -20 -20 -21 -21 -21 -21 -22 -22 -22 -22 -23 -23 -24 -24 -25 -25 -26 -27 -28 -29 -30 -31 -32 -32 -33 -33 -34 -35 -36 -36 -37 -37 -38 -39 -39 -39 -39 -39
-19 -19 -20 -20 -20 -21 -21 -21 -22 -22 -22 -22 -23 -23 -23 -24 -25 -25 -26 -26 -27 -28 -29 -30 -31 -32 -32 -32 -33 -33 -35 -35 -36 -37 -37 -37 -38 -38 -38 -40 -40 -40 -39
-19 -20 -21 -21 -21 -22 -22 -22 -22 -22 -23 -23 -24 -24 -24 -25 -26 -26 -27 -28 -29 -30 -31 -31 -32 -32 -33 -33 -34 -35 -36 -37 -37 -37 -38 -38 -38 -39 -40 -40 -40 -40 -40
-20 -21 -21 -22 -22 -22 -22 -22 -23 -23 -24 -24 -24 -25 -26 -26 -26 -27 -28 -29 -30 -31 -32 -32 -33 -33 -33 -34 -36 -36 -37 -38 -38 -38 -38 -38 -38 -39 -39 -40 -40 -40 -40
-21 -21 -22 -22 -22 -22 -23 -23 -24 -24 -24 -25 -25 -26 -26 -27 -28 -29 -30 -31 -32 -32 -33 -33 -34 -34 -35 -36 -37 -38 -38 -38 -38 -38 -38 -39 -39 -39 -39 -41 -41 -40 -40
-22 -22 -23 -23 -23 -24 -24 -24 -24 -25 -25 -25 -25 -26 -28 -29 -30 -31 -31 -32 -33 -33 -34 -34 -35 -36 -37 -38 -38 -39 -39 -39 -39 -39 -39 -39 -39 -39 -39 -41 -40 -40 -40
-23 -23 -23 -24 -24 -24 -25 -25 -25 -25 -25 -26 -27 -28 -30 -31 -31 -32 -32 -33 -34 -34 -35 -36 -37 -37 -38 -39 -39 -39 -39 -39 -39 -39 -39 -39 -39 -39 -39 -41 -40 -40 -40
Height
5724 5725 5724 5722 5722 5720 5717 5715 5713 5710 5712 5713 5714 5715 5713 5711 5708 5705 5701 5697 5694 5690 5687 5684 5679 5675 5668 5661 5654 5647 5639 5632 5628 5624 5615 5604 5596 5584 5571 5560 5550 5538 5527
5717 5717 5715 5714 5715 5711 5712 5690 5694 5709 5711 5710 5706 5705 5703 5700 5697 5693 5690 5686 5683 5680 5677 5672 5666 5661 5654 5646 5639 5631 5623 5615 5611 5607 5599 5590 5579 5567 5559 5547 5534 5521 5509
5712 5707 5701 5707 5700 5707 5706 5705 5701 5700 5699 5698 5696 5694 5692 5689 5686 5682 5680 5677 5673 5668 5663 5658 5652 5646 5639 5632 5624 5617 5609 5601 5593 5587 5583 5575 5563 5549 5538 5527 5517 5503 5488
5704 5702 5704 5700 5699 5697 5694 5694 5693 5692 5693 5691 5689 5686 5682 5680 5677 5674 5670 5666 5661 5655 5650 5644 5638 5632 5625 5617 5610 5601 5593 5585 5576 5569 5563 5557 5545 5533 5515 5505 5494 5481 5469
5698 5699 5697 5697 5694 5692 5691 5688 5686 5685 5684 5682 5678 5675 5672 5670 5667 5663 5659 5653 5648 5643 5637 5631 5624 5616 5609 5601 5593 5585 5576 5569 5561 5553 5544 5534 5526 5513 5495 5480 5466 5455 5441
5691 5692 5691 5689 5687 5685 5683 5679 5676 5675 5673 5671 5668 5666 5663 5659 5656 5652 5646 5641 5636 5630 5623 5616 5609 5601 5594 5586 5579 5570 5560 5551 5543 5533 5526 5514 5507 5493 5479 5463 5447 5436 5426
5684 5683 5682 5679 5676 5674 5671 5670 5668 5666 5664 5662 5659 5656 5652 5649 5645 5639 5634 5628 5622 5616 5609 5601 5594 5586 5580 5573 5566 5556 5546 5534 5521 5511 5503 5494 5481 5469 5457 5444 5431 5418 5409
5678 5676 5673 5671 5668 5666 5663 5661 5659 5657 5654 5651 5648 5645 5642 5637 5632 5627 5621 5615 5608 5601 5594 5586 5578 5570 5562 5557 5551 5544 5534 5521 5508 5495 5481 5471 5459 5447 5433 5419 5408 5400 5392
5667 5664 5661 5659 5657 5654 5652 5650 5647 5645 5642 5640 5637 5634 5630 5624 5619 5613 5608 5602 5594 5586 5578 5569 5562 5553 5545 5539 5533 5527 5519 5507 5495 5480 5466 5452 5438 5425 5413 5399 5392 5381 5376
5656 5654 5651 5648 5645 5643 5641 5638 5636 5633 5631 5628 5625 5621 5617 5612 5605 5599 5593 5586 5579 5572 5564 5555 5546 5538 5528 5518 5511 5503 5498 5488 5478 5468 5452 5436 5420 5406 5394 5382 5374 5366 5360
5646 5643 5641 5638 5636 5633 5630 5628 5626 5623 5619 5616 5613 5609 5604 5598 5590 5583 5576 5569 5564 5556 5548 5539 5528 5519 5510 5499 5489 5480 5471 5464 5454 5442 5431 5416 5403 5390 5378 5368 5357 5350 5346
5635 5632 5630 5628 5625 5622 5619 5617 5614 5610 5604 5601 5597 5595 5589 5583 5575 5567 5560 5554 5547 5539 5531 5522 5513 5503 5493 5482 5471 5459 5448 5437 5426 5416 5403 5392 5379 5369 5360 5353 5343 5336 5332
5622 5621 5619 5616 5613 5609 5606 5604 5600 5596 5591 5587 5582 5578 5572 5566 5559 5551 5544 5536 5529 5521 5514 5505 5496 5486 5475 5464 5452 5440 5427 5414 5402 5391 5379 5368 5356 5348 5341 5335 5328 5323 5320
5610 5608 5605 5602 5600 5597 5594 5590 5586 5582 5578 5572 5566 5559 5554 5548 5541 5534 5526 5518 5511 5503 5493 5484 5475 5466 5455 5444 5433 5420 5405 5391 5379 5368 5358 5347 5338 5330 5324 5317 5312 5309 5309
5598 5595 5591 5588 5586 5583 5579 5575 5571 5567 5562 5555 5549 5542 5535 5528 5522 5516 5507 5499 5491 5483 5473 5464 5455 5445 5436 5425 5412 5399 5385 5371 5358 5344 5335 5327 5321 5313 5307 5301 5297 5297 5297
5585 5581 5577 5574 5572 5567 5562 5558 5555 5549 5544 5538 5532 5524 5516 5509 5502 5495 5487 5478 5470 5462 5452 5444 5434 5424 5413 5403 5391 5379 5365 5351 5338 5326 5317 5310 5305 5299 5293 5289 5288 5289 5288
5571 5566 5563 5561 5556 5551 5547 5541 5536 5531 5524 5519 5513 5506 5498 5490 5481 5474 5467 5457 5447 5439 5430 5420 5409 5399 5388 5376 5365 5354 5344 5331 5320 5310 5299 5292 5288 5286 5282 5278 5279 5280 5281
5558 5553 5547 5542 5539 5535 5530 5525 5518 5512 5506 5500 5493 5487 5479 5468 5458 5451 5444 5436 5426 5414 5405 5395 5384 5373 5361 5350 5340 5330 5320 5310 5300 5292 5286 5278 5271 5269 5270 5270 5269 5270 5270
5542 5537 5532 5526 5521 5515 5511 5506 5500 5494 5487 5481 5473 5467 5460 5451 5440 5430 5422 5414 5404 5394 5382 5371 5359 5347 5337 5326 5316 5306 5297 5289 5281 5275 5269 5265 5259 5256 5256 5257 5259 5260 5260
5525 5519 5515 5509 5504 5499 5493 5487 5481 5474 5467 5459 5452 5445 5439 5430 5421 5411 5401 5391 5380 5368 5357 5346 5334 5323 5313 5304 5294 5284 5276 5268 5261 5256 5252 5247 5244 5243 5243 5245 5248 5249 5251
5507 5502 5496 5491 5485 5479 5473 5467 5461 5454 5446 5439 5431 5423 5415 5405 5396 5385 5374 5362 5351 5341 5330 5319 5310 5300 5291 5282 5272 5263 5255 5248 5242 5238 5234 5232 5230 5230 5231 5234 5238 5241 5242
5487 5482 5477 5472 5467 5461 5455 5449 5441 5433 5426 5418 5409 5400 5391 5381 5371 5359 5348 5336 5325 5315 5304 5295 5286 5277 5268 5260 5251 5243 5237 5231 5226 5222 5220 5218 5217 5218 5221 5224 5228 5231 5233
5468 5463 5459 5454 5448 5442 5436 5429 5420 5413 5405 5396 5386 5375 5364 5353 5342 5332 5321 5310 5300 5290 5280 5271 5263 5255 5246 5237 5229 5223 5220 5215 5211 5208 5207 5206 5206 5207 5210 5215 5219 5223 5224
5453 5447 5442 5436 5431 5423 5414 5407 5398 5389 5381 5371 5360 5348 5337 5326 5315 5304 5294 5284 5275 5266 5256 5248 5240 5233 5225 5217 5211 5206 5203 5200 5198 5196 5196 5196 5196 5197 5200 5206 5211 5215 5217
5435 5429 5422 5416 5409 5401 5392 5383 5374 5364 5354 5344 5333 5321 5309 5297 5286 5277 5268 5260 5251 5242 5234 5225 5218 5212 5205 5199 5195 5192 5189 5187 5186 5185 5185 5186 5188 5190 5192 5197 5203 5207 5211
5416 5409 5402 5394 5386 5377 5367 5358 5348 5337 5327 5315 5303 5291 5280 5269 5260 5251 5243 5234 5227 5219 5211 5205 5199 5194 5189 5185 5181 5179 5177 5176 5175 5175 5176 5177 5178 5180 5183 5189 5196 5201 5205
Wind_Speed
24 21 23 26 27 31 33 36 38 28 30 32 34 35 40 40 40 42 40 40 42 44 43 44 47 51 56 60 62 63 63 64 66 66 68 70 71 74 80 83 86 88 90
27 26 29 31 30 37 40 44 31 32 37 38 38 39 38 40 41 40 42 43 44 45 46 49 52 56 60 62 63 63 64 66 68 68 68 69 74 78 80 84 88 90 93
33 26 29 29 34 29 29 34 36 38 39 39 39 40 41 42 42 43 44 44 45 47 50 53 57 60 63 64 64 64 66 69 70 69 70 73 77 81 86 90 91 92 92
24 23 29 29 35 35 36 38 39 39 37 37 39 42 41 42 43 43 44 44 47 50 53 57 61 64 64 64 65 68 69 68 70 72 74 76 80 84 90 92 93 92 89
28 28 29 32 35 37 39 39 39 38 39 42 41 41 42 43 43 43 45 47 50 54 57 61 64 64 64 64 65 65 66 68 71 74 78 82 84 87 92 92 94 89 84
32 33 34 37 39 39 39 38 39 41 44 42 42 43 43 44 45 45 48 51 54 58 62 64 64 65 64 65 65 66 69 71 74 78 82 86 87 90 89 90 88 83 77
34 36 38 40 40 41 41 41 44 46 43 42 42 43 44 45 46 49 52 56 59 62 63 63 64 65 66 66 66 67 70 74 78 83 86 88 91 90 89 86 81 75 70
34 36 38 39 40 41 42 43 42 42 42 43 43 44 45 47 50 52 56 59 62 64 64 64 64 65 66 67 68 69 72 75 80 85 90 92 91 89 86 82 76 68 64
36 38 38 38 39 41 41 41 42 43 43 44 45 46 48 51 53 57 60 63 64 65 64 66 66 67 69 71 72 74 76 79 84 87 91 92 90 88 82 76 67 63 58
39 40 39 38 40 41 41 42 43 44 45 46 48 50 52 54 57 60 63 63 65 65 66 67 69 70 71 73 77 79 81 83 86 90 91 89 87 85 77 68 62 57 50
39 39 39 40 42 43 42 43 44 46 47 49 51 54 55 57 60 63 64 65 66 68 69 70 70 72 74 76 79 83 86 88 92 95 93 89 85 79 69 60 58 52 46
39 40 41 43 44 44 44 45 47 48 51 53 55 56 58 61 64 66 66 67 68 69 71 72 73 75 77 79 82 87 91 94 96 94 90 86 81 70 60 54 52 46 42
39 40 41 43 44 45 46 48 50 52 54 56 58 60 64 67 67 68 68 69 69 71 73 75 76 78 81 84 87 91 94 96 94 90 86 81 72 63 56 53 47 40 38
40 40 41 43 45 47 50 53 54 55 55 59 62 64 67 68 70 67 68 69 71 75 78 80 81 84 86 88 91 95 96 94 90 86 81 72 64 59 54 51 42 36 35
40 42 44 47 48 50 52 55 57 58 62 61 63 67 68 70 68 70 73 74 78 81 83 85 87 88 89 91 94 95 91 87 84 82 75 65 58 55 52 44 34 30 26
44 46 49 51 51 52 55 57 60 63 64 64 66 70 73 74 71 73 75 78 82 85 87 87 89 91 92 94 94 91 86 83 80 75 68 61 56 52 45 33 20 21 31
48 51 53 53 54 58 60 62 65 67 67 69 74 77 75 74 75 76 77 82 86 87 87 90 92 94 95 95 91 87 82 78 74 67 62 58 55 46 26 27 27 31 36
53 55 57 58 60 62 62 63 65 69 73 77 77 75 75 77 81 82 83 85 86 89 91 93 95 95 93 90 86 82 77 73 68 63 56 53 48 41 32 33 35 32 35
55 59 63 65 65 66 68 72 74 76 76 74 74 74 75 79 81 84 87 88 90 91 94 95 95 92 89 86 82 78 73 70 65 59 53 46 41 38 37 38 36 34 27
64 68 69 72 73 74 76 77 76 74 74 74 76 77 79 80 83 87 90 92 94 95 95 94 92 88 85 82 78 75 71 66 61 54 48 41 34 33 35 37 32 25 28
69 72 72 71 72 74 75 74 73 73 74 77 78 78 81 84 87 91 93 94 94 93 92 90 87 84 81 78 75 72 67 61 55 47 41 34 31 30 29 31 28 28 29
71 69 69 69 70 70 71 71 72 76 78 78 80 84 87 90 91 93 94 94 94 91 89 86 83 80 78 76 72 66 59 53 47 41 34 30 29 28 31 31 27 26 27
64 63 63 64 65 68 71 75 76 77 79 83 87 90 92 94 95 95 94 92 89 86 83 82 80 78 76 72 65 58 51 44 39 34 29 27 26 28 31 32 27 27 23
58 60 62 66 70 74 75 77 79 83 87 91 93 95 96 96 94 92 89 86 84 82 82 81 79 75 69 62 55 49 43 37 32 29 25 22 21 21 26 30 27 27 21
61 64 67 69 73 76 80 84 88 91 93 96 98 98 95 93 91 88 86 85 83 83 80 76 71 65 58 51 46 41 36 32 28 25 23 22 23 21 23 29 26 23 24
68 71 74 78 81 84 87 90 92 96 98 99 98 94 91 89 88 87 85 84 82 77 71 65 59 53 47 42 38 34 31 29 26 23 22 22 23 23 26 31 27 22 24
Wind_Direction
267 262 265 265 265 267 271 265 259 291 302 305 303 300 298 299 300 299 299 302 304 304 303 303 301 301 303 305 304 303 303 304 306 307 307 306 305 304 307 310 311 311 311
262 262 265 274 275 271 272 263 308 296 294 298 297 299 298 299 301 302 303 304 304 303 302 303 305 306 306 305 305 306 306 307 307 308 308 306 305 306 309 310 310 310 310
270 263 265 286 287 284 293 284 291 300 302 300 299 300 300 301 302 302 302 302 302 304 305 306 307 308 308 309 309 308 307 308 308 309 308 306 307 309 310 311 311 310 310
291 293 284 288 289 289 294 296 297 296 293 295 293 294 297 298 297 299 300 301 304 305 305 306 307 309 310 309 309 309 309 309 308 307 307 308 309 311 312 312 311 310 309
293 288 288 284 287 288 288 288 287 287 288 290 293 294 295 296 297 298 300 302 302 304 305 308 309 309 308 307 307 308 307 307 306 306 308 309 311 313 312 311 311 310 309
286 286 286 286 287 285 283 284 286 285 290 291 291 292 293 294 297 299 299 302 303 305 306 308 308 308 307 308 308 307 306 306 307 307 308 310 312 312 311 310 310 308 306
285 288 287 287 286 287 288 285 283 286 287 289 291 292 293 295 297 298 301 303 303 305 307 308 308 307 308 308 307 307 307 307 309 310 312 313 313 312 311 310 308 305 303
284 285 286 286 285 285 284 282 283 285 287 290 291 291 293 296 297 299 300 301 304 305 306 307 306 307 307 306 306 305 305 307 309 311 312 313 312 312 311 309 307 304 300
284 284 284 284 283 282 282 283 284 286 288 289 289 292 293 294 296 298 300 303 304 305 306 305 306 306 306 306 305 304 305 307 309 311 312 311 311 311 310 308 306 301 298
288 286 284 283 282 284 284 285 286 288 288 289 291 292 293 294 298 301 303 303 304 305 304 304 304 305 305 305 305 306 306 306 308 310 311 311 310 310 309 306 303 300 294
288 287 285 284 285 283 282 282 285 286 288 289 290 291 295 297 298 301 302 302 304 303 303 304 304 305 306 306 307 306 307 309 310 311 311 310 310 309 307 303 303 297 288
285 285 287 287 287 284 281 283 285 287 288 290 292 294 296 298 300 301 299 300 301 301 303 304 304 305 306 306 306 307 309 310 310 311 311 310 310 308 304 302 302 291 283
287 291 291 290 287 284 284 286 286 287 290 292 295 296 297 298 299 297 298 300 301 303 304 303 303 305 306 306 307 308 309 310 310 310 310 311 310 307 304 305 299 282 276
289 290 290 288 288 288 289 289 290 291 294 295 297 297 299 299 298 298 300 301 303 304 304 304 305 306 306 306 308 309 309 309 309 310 310 310 309 306 305 306 293 278 270
288 288 287 287 288 290 290 291 292 294 293 296 299 301 301 300 296 300 303 303 305 304 303 304 304 304 305 306 308 308 308 308 309 310 311 309 307 306 308 302 286 272 266
287 286 285 285 289 289 288 290 291 292 294 298 298 300 300 294 293 299 301 301 302 303 302 302 302 303 305 307 307 308 308 309 310 310 308 307 306 307 304 292 262 239 248
285 285 286 287 286 286 287 288 290 296 298 299 300 298 294 290 293 297 299 302 303 302 302 302 304 305 306 306 308 308 309 309 309 308 307 305 305 305 293 281 274 252 252
288 289 288 290 293 295 297 297 297 296 295 293 293 293 293 292 295 299 302 303 302 302 304 304 304 305 306 308 308 309 309 309 308 307 305 302 300 295 279 262 264 271 269
286 288 290 290 292 294 291 287 286 287 290 291 290 291 293 294 297 300 300 300 302 302 302 303 304 305 307 307 308 308 308 307 306 304 302 298 289 277 269 262 256 270 264
286 284 282 280 281 283 284 285 287 288 289 290 291 293 294 296 297 298 299 301 302 302 302 303 304 306 306 307 308 308 307 305 304 302 299 293 281 269 259 260 263 257 269
280 280 281 282 282 282 283 285 287 289 291 293 293 295 296 298 299 301 302 302 302 302 302 304 305 305 307 308 307 305 304 303 301 299 294 286 276 265 255 247 247 253 265
280 280 282 283 284 284 285 287 290 292 293 293 294 297 299 301 302 302 301 301 301 302 303 304 305 306 307 306 305 304 302 300 298 295 289 279 269 257 242 247 244 252 268
283 284 284 285 285 286 288 290 291 292 292 294 298 302 303 302 301 300 300 301 302 302 303 304 305 306 306 304 303 302 300 297 294 290 284 274 264 251 240 238 243 250 255
287 286 286 285 286 288 289 290 291 292 296 300 302 302 301 300 299 299 301 302 303 303 303 304 305 304 303 301 300 298 297 294 289 285 278 265 256 252 233 227 233 242 235
285 286 288 289 291 293 295 296 299 300 301 302 301 301 300 299 300 301 301 302 301 302 303 303 302 301 300 299 297 295 292 289 285 279 267 255 251 250 237 221 221 237 218
292 292 294 295 297 298 299 300 301 301 301 301 300 299 300 300 300 300 300 300 301 301 301 300 298 299 298 295 294 291 289 286 281 274 261 252 252 246 232 208 215 218 216